Terug naar catalogus

DMSP 5D-2 F13 DEB

ActiefSSO
NORAD 40491·DEBRIS·🇺🇸 United States

Gelanceerd Mar 24, 1995 vanaf Vandenberg Space Force Base

Loading…

Volgende Passages (komende 24 uur)

TLE

VersSource: Space-Track

Epoch: Sep 14, 2026, 03:01 UTC

1 40491U 95015CE  26257.12622510  .00007202  00000-0  14015-2 0  9993
2 40491  98.5584 319.1936 0018709 198.6822 161.3694 14.63288026602055

Volg DMSP 5D-2 F13 DEB in realtime met AllMySat

Download on the App Store